Location: Presov
(49.0000°N, 21.2500°E)
Time: 22:40:18
(UTC+02:00)

Altair - Visible Passes

Search period start: 17 April 2021 00:00
Search period end: 27 April 2021 00:00
Orbit: 1501 x 1683 km, 47.2° (Epoch: 17 April)

Date Brightness Start Highest point End Pass type
(mag) Time Alt. Az. Time Alt. Az. Time Alt. Az.
20 Apr 9.0 05:01:31 10° S 05:09:34 29° SE 05:17:24 10° E visible
21 Apr 9.0 04:36:42 10° S 04:44:31 27° SE 04:52:07 10° E visible
22 Apr 9.1 04:11:55 10° S 04:19:27 25° SE 04:26:48 10° E visible
23 Apr 9.1 03:47:11 10° S 03:54:24 23° SE 04:01:28 10° E visible
24 Apr 9.1 03:22:31 10° S 03:29:22 21° SE 03:36:05 10° E visible
25 Apr 9.2 02:57:53 10° S 03:04:19 19° SE 03:10:39 10° E visible
26 Apr 9.2 02:33:53 11° SSE 02:39:18 18° SE 02:45:09 10° E visible
26 Apr 8.2 04:32:52 10° SW 04:42:18 48° SSE 04:51:26 10° ENE visible
